Mount Pleasant, IA

5:06 AM CDT on May 26, 2017 (GMT -0500)
Mount Pleasant Municipal

Weather History for KMPZ - May, 2013

Change the Weather History Date:

Thursday, May 16, 2013

  Actual Average Record
Temperature  
Mean Temperature 76 °F -  
Max Temperature 87 °F 73 °F 89 °F (1962)
Min Temperature 64 °F 51 °F 33 °F (2005)
Cooling Degree Days 10    
Growing Degree Days 26 (Base 50)    
Moisture  
Dew Point 55 °F    
Average Humidity 52    
Maximum Humidity 80    
Minimum Humidity 25    
Precipitation  
Precipitation 0.40 in - - ()
Sea Level Pressure  
Sea Level Pressure 29.89 in    
Wind  
Wind Speed 4 mph (SE)    
Max Wind Speed 12 mph    
Max Gust Speed 13 mph    
Visibility 10 miles    
Events Rain    
Averages and records for this station are not official NWS values.
T = Trace of Precipitation, MM = Missing Value Source: NWS Daily Summary

Daily Weather History Graph

Daily Weather History Graph

Search for Another Location

Airport or City:

Trip Planner

Search our weather history database for the weather conditions in past years. The results will help you decide how hot, cold, wet, or windy it might be!

Date:

Astronomy

May. 16, 2013 Rise Set
Actual Time 5:47 AM CDT 8:18 PM CDT
Civil Twilight 5:15 AM CDT 8:49 PM CDT
Nautical Twilight 4:36 AM CDT 9:28 PM CDT
Astronomical Twilight 3:53 AM CDT 10:12 PM CDT
Moon 11:21 AM CDT (5/16) 12:38 AM CDT (5/16)
Length of Visible Light 15h 34m
Length of Day
14h 31m
Waxing Crescent, 36% of the Moon is Illuminated
May 16
Waxing Crescent
May 17
First Quarter
May 24
Full
May 31
Last Quarter
Jun 8
New

Hourly Weather History & Observations

Time (CDT) Temp. Heat Index Dew Point Humidity Pressure Visibility Wind Dir Wind Speed Gust Speed Precip Events Conditions
12:15 AM 68.5 °F - 48.6 °F 49% 29.87 in 10.0 mi South 3.5 mph - N/A   Mostly Cloudy
12:55 AM 68.0 °F - 48.9 °F 50% 29.88 in 10.0 mi Calm Calm - N/A   Mostly Cloudy
1:15 AM 68.7 °F - 48.2 °F 48% 29.88 in 10.0 mi Calm Calm - N/A   Mostly Cloudy
1:35 AM 69.1 °F - 49.1 °F 49% 29.89 in 10.0 mi Calm Calm - N/A   Mostly Cloudy
1:55 AM 68.0 °F - 49.3 °F 51% 29.89 in 10.0 mi WSW 5.8 mph - N/A   Mostly Cloudy
2:15 AM 69.4 °F - 48.6 °F 47% 29.89 in 10.0 mi North 3.5 mph - N/A   Mostly Cloudy
2:35 AM 68.7 °F - 50.2 °F 52% 29.89 in 10.0 mi North 4.6 mph - N/A Rain Rain
2:55 AM 71.1 °F - 47.7 °F 43% 29.89 in 10.0 mi North 6.9 mph - N/A   Scattered Clouds
3:15 AM 68.5 °F - 51.6 °F 55% 29.88 in 10.0 mi NE 4.6 mph - N/A   Scattered Clouds
3:35 AM 68.0 °F - 51.1 °F 55% 29.89 in 10.0 mi North 6.9 mph - N/A   Mostly Cloudy
3:55 AM 68.0 °F - 51.6 °F 56% 29.88 in 10.0 mi NNE 4.6 mph - N/A   Mostly Cloudy
4:15 AM 68.2 °F - 51.6 °F 55% 29.91 in 10.0 mi West 5.8 mph - N/A   Mostly Cloudy
4:35 AM 67.1 °F - 57.7 °F 72% 29.90 in 4.0 mi SE 3.5 mph - 0.14 in Rain Heavy Rain
4:55 AM 67.1 °F - 59.2 °F 76% 29.91 in 1.8 mi Calm Calm - 0.32 in Rain Heavy Rain
5:15 AM 66.4 °F - 59.5 °F 79% 29.90 in 5.0 mi Calm Calm - 0.02 in Rain Rain
5:35 AM 65.5 °F - 59.0 °F 80% 29.89 in 10.0 mi ENE 5.8 mph - 0.03 in Rain Light Rain
5:55 AM 65.1 °F - 56.3 °F 73% 29.90 in 10.0 mi East 5.8 mph - 0.06 in Rain Rain
6:15 AM 65.1 °F - 55.9 °F 72% 29.90 in 10.0 mi SW 5.8 mph - 0.01 in Rain Light Rain
6:35 AM 64.8 °F - 56.5 °F 74% 29.91 in 10.0 mi South 5.8 mph - 0.01 in Rain Light Rain
6:55 AM 64.8 °F - 56.3 °F 74% 29.91 in 10.0 mi Calm Calm - 0.02 in   Scattered Clouds
7:15 AM 65.5 °F - 56.7 °F 73% 29.92 in 10.0 mi SSE 4.6 mph - N/A   Mostly Cloudy
7:35 AM 65.5 °F - 56.5 °F 73% 29.91 in 10.0 mi SE 5.8 mph - N/A   Light Drizzle
7:55 AM 66.2 °F - 56.7 °F 71% 29.92 in 10.0 mi Calm Calm - N/A   Clear
8:15 AM 66.6 °F - 57.2 °F 72% 29.93 in 10.0 mi SE 3.5 mph - N/A   Clear
8:35 AM 68.0 °F - 56.5 °F 67% 29.93 in 10.0 mi ESE 4.6 mph - N/A   Clear
8:55 AM 69.4 °F - 55.8 °F 62% 29.93 in 10.0 mi East 4.6 mph - N/A   Clear
9:15 AM 71.2 °F - 56.1 °F 59% 29.93 in 10.0 mi East 4.6 mph - N/A   Clear
9:35 AM 74.1 °F - 55.2 °F 52% 29.94 in 10.0 mi ESE 5.8 mph - N/A   Scattered Clouds
9:55 AM 75.4 °F - 55.2 °F 49% 29.94 in 10.0 mi SSE 4.6 mph - N/A   Scattered Clouds
10:15 AM 76.1 °F - 54.5 °F 47% 29.93 in 10.0 mi SSE 5.8 mph - N/A   Clear
10:35 AM 76.1 °F - 52.5 °F 44% 29.93 in 10.0 mi Calm Calm - N/A   Clear
10:55 AM 77.0 °F - 52.2 °F 42% 29.93 in 10.0 mi Calm Calm - N/A   Clear
11:15 AM 78.4 °F - 52.9 °F 41% 29.92 in 10.0 mi ESE 3.5 mph - N/A   Clear
11:35 AM 79.2 °F - 53.4 °F 41% 29.92 in 10.0 mi East 3.5 mph - N/A   Clear
11:55 AM 79.5 °F - 54.1 °F 41% 29.92 in 10.0 mi East 5.8 mph - N/A   Clear
12:15 PM 81.3 °F 80.8 °F 54.0 °F 39% 29.91 in 10.0 mi Calm Calm - N/A   Clear
12:35 PM 81.9 °F 81.1 °F 54.1 °F 38% 29.91 in 10.0 mi East 4.6 mph - N/A   Scattered Clouds
12:55 PM 82.6 °F 81.6 °F 53.6 °F 37% 29.90 in 10.0 mi East 6.9 mph - N/A   Scattered Clouds
1:15 PM 83.7 °F 82.3 °F 53.6 °F 35% 29.89 in 10.0 mi East 8.1 mph - N/A   Scattered Clouds
1:35 PM 84.6 °F - 52.3 °F 33% 29.89 in 10.0 mi ESE 8.1 mph - N/A   Clear
2:15 PM 86.4 °F - 46.9 °F 25% 29.89 in 10.0 mi SE 11.5 mph - N/A   Mostly Cloudy
2:35 PM 85.6 °F - 49.1 °F 28% 29.88 in 10.0 mi ESE 6.9 mph - N/A   Mostly Cloudy
2:55 PM 86.9 °F - 49.5 °F 27% 29.87 in 10.0 mi ESE 9.2 mph - N/A   Scattered Clouds
3:15 PM 86.9 °F - 48.2 °F 26% 29.87 in 10.0 mi ESE 9.2 mph - N/A   Clear
3:35 PM 86.9 °F - 51.8 °F 30% 29.86 in 10.0 mi SE 6.9 mph - N/A   Clear
3:55 PM 87.8 °F - 52.0 °F 29% 29.86 in 10.0 mi SE 5.8 mph - N/A   Mostly Cloudy
4:15 PM 85.1 °F 84.4 °F 58.1 °F 40% 29.85 in 10.0 mi SSE 11.5 mph - N/A   Mostly Cloudy
4:35 PM 85.1 °F 83.9 °F 55.8 °F 37% 29.86 in 10.0 mi SE 9.2 mph 12.7 mph N/A   Scattered Clouds
5:15 PM 84.2 °F 83.3 °F 56.5 °F 39% 29.85 in 10.0 mi South 4.6 mph - N/A   Clear
5:35 PM 85.1 °F 84.3 °F 57.2 °F 39% 29.85 in 10.0 mi South 9.2 mph - N/A   Clear
5:55 PM 84.7 °F 83.4 °F 55.0 °F 36% 29.85 in 10.0 mi SE 6.9 mph - N/A   Clear
6:15 PM 84.0 °F 83.3 °F 57.6 °F 40% 29.84 in 10.0 mi SE 8.1 mph - N/A   Clear
6:35 PM 84.2 °F 83.3 °F 56.8 °F 39% 29.84 in 10.0 mi SSE 6.9 mph - N/A   Clear
6:55 PM 83.3 °F 83.1 °F 58.8 °F 43% 29.84 in 10.0 mi SE 5.8 mph - N/A   Clear
7:15 PM 83.3 °F 83.2 °F 59.5 °F 44% 29.84 in 10.0 mi SSE 5.8 mph - N/A   Clear
7:35 PM 82.2 °F 82.6 °F 60.3 °F 47% 29.85 in 10.0 mi SE 4.6 mph - N/A   Clear
7:55 PM 79.9 °F - 61.7 °F 54% 29.85 in 10.0 mi SE 6.9 mph - N/A   Scattered Clouds
8:15 PM 79.3 °F - 59.9 °F 51% 29.87 in 10.0 mi South 8.1 mph - N/A   Scattered Clouds
8:35 PM 77.7 °F - 57.7 °F 50% 29.87 in 10.0 mi South 10.4 mph - N/A   Scattered Clouds
8:55 PM 75.7 °F - 58.5 °F 55% 29.88 in 10.0 mi South 6.9 mph - N/A   Scattered Clouds
9:15 PM 74.7 °F - 59.2 °F 58% 29.89 in 10.0 mi South 6.9 mph - N/A   Scattered Clouds
9:35 PM 73.6 °F - 60.8 °F 64% 29.90 in 10.0 mi South 4.6 mph - N/A   Clear
9:55 PM 73.0 °F - 60.3 °F 64% 29.90 in 10.0 mi South 4.6 mph - N/A   Clear
10:15 PM 72.5 °F - 60.6 °F 66% 29.90 in 10.0 mi South 5.8 mph - N/A   Clear
10:35 PM 72.1 °F - 60.8 °F 67% 29.90 in 10.0 mi South 3.5 mph - N/A   Clear
10:55 PM 72.0 °F - 61.0 °F 68% 29.89 in 10.0 mi South 3.5 mph - N/A   Clear
11:15 PM 72.0 °F - 61.2 °F 69% 29.89 in 10.0 mi South 3.5 mph - N/A   Clear
11:35 PM 71.1 °F - 61.0 °F 70% 29.89 in 10.0 mi SSE 4.6 mph - N/A   Clear
11:55 PM 70.9 °F - 60.8 °F 70% 29.89 in 10.0 mi SSE 5.8 mph - N/A   Clear